Time,TemperatureF,DewpointF,PressureIn,WindDirection,WindDirectionDegrees,WindSpeedMPH,WindSpeedGustMPH,Humidity,HourlyPrecipIn,Conditions,Clouds,dailyrainin,SoftwareType,DateUTC
2013-11-01 00:00:00,51.7,48.9,29.55,WSW,248,1.0,2.0,90,0.00,,CLR,0.27,VWS V14.01,2013-11-01 05:00:00,
2013-11-01 00:04:00,51.4,48.6,29.56,SSW,200,0.0,0.0,90,0.00,,RA,0.00,VWS V14.01,2013-11-01 05:04:00,
2013-11-01 00:09:00,51.3,48.5,29.56,SW,221,0.0,1.0,90,0.00,,RA,0.00,VWS V14.01,2013-11-01 05:09:00,
2013-11-01 00:15:00,51.4,48.6,29.56,SSE,162,1.0,1.0,90,0.00,,RA,0.00,VWS V14.01,2013-11-01 05:15:00,
2013-11-01 00:20:00,51.4,48.6,29.56,SSW,212,0.0,1.0,90,0.00,,RA,0.00,VWS V14.01,2013-11-01 05:20:00,
2013-11-01 00:30:00,51.7,48.6,29.56,West,263,0.0,1.0,89,0.00,,RA,0.00,VWS V14.01,2013-11-01 05:30:00,
2013-11-01 00:35:00,51.6,48.5,29.56,West,263,0.0,1.0,89,0.00,,RA,0.00,VWS V14.01,2013-11-01 05:35:00,
2013-11-01 00:45:00,51.3,48.2,29.57,SSW,202,0.0,1.0,89,0.00,,RA,0.00,VWS V14.01,2013-11-01 05:45:00,
2013-11-01 00:50:00,51.2,48.1,29.57,SSW,211,0.0,1.0,89,0.00,,RA,0.00,VWS V14.01,2013-11-01 05:50:00,
2013-11-01 00:55:00,51.1,48.0,29.57,WSW,237,0.0,2.0,89,0.00,,RA,0.00,VWS V14.01,2013-11-01 05:55:00,
2013-11-01 01:00:00,51.1,48.0,29.57,SW,221,0.0,0.0,89,0.00,,RA,0.00,VWS V14.01,2013-11-01 06:00:00,
2013-11-01 01:05:00,51.2,48.1,29.57,West,273,0.0,3.0,89,0.00,,RA,0.00,VWS V14.01,2013-11-01 06:05:00,
2013-11-01 01:10:00,51.4,48.3,29.57,SSW,200,1.0,3.0,89,0.00,,RA,0.00,VWS V14.01,2013-11-01 06:10:00,
2013-11-01 01:15:00,51.4,48.3,29.57,SSW,199,0.0,3.0,89,0.00,,RA,0.00,VWS V14.01,2013-11-01 06:15:00,
2013-11-01 01:21:00,51.4,48.0,29.57,SSE,157,1.0,3.0,88,0.00,,RA,0.00,VWS V14.01,2013-11-01 06:21:00,
2013-11-01 01:26:00,51.4,48.0,29.58,SW,227,1.0,3.0,88,0.00,,RA,0.00,VWS V14.01,2013-11-01 06:26:00,
2013-11-01 01:30:00,51.4,48.0,29.57,SW,233,0.0,4.0,88,0.00,,RA,0.00,VWS V14.01,2013-11-01 06:30:00,
2013-11-01 01:31:00,51.4,48.0,29.58,SW,236,0.0,0.0,88,0.00,,RA,0.00,VWS V14.01,2013-11-01 06:31:00,
2013-11-01 01:36:00,51.4,48.0,29.58,WSW,251,0.0,3.0,88,0.00,,RA,0.00,VWS V14.01,2013-11-01 06:36:00,
2013-11-01 01:41:00,51.3,47.9,29.58,SW,226,0.0,3.0,88,0.00,,RA,0.00,VWS V14.01,2013-11-01 06:41:00,
2013-11-01 01:46:00,51.3,47.9,29.58,SW,234,0.0,3.0,88,0.00,,RA,0.00,VWS V14.01,2013-11-01 06:46:00,
2013-11-01 01:51:00,51.3,47.9,29.58,WNW,288,0.0,3.0,88,0.00,,RA,0.00,VWS V14.01,2013-11-01 06:51:00,
2013-11-01 01:56:00,51.2,47.8,29.58,NE,52,0.0,3.0,88,0.00,,RA,0.00,VWS V14.01,2013-11-01 06:56:00,
2013-11-01 02:00:00,51.2,47.5,29.58,SE,131,0.0,3.0,87,0.00,,RA,0.00,VWS V14.01,2013-11-01 07:00:00,
2013-11-01 02:02:00,51.1,47.4,29.58,SE,131,0.0,0.0,87,0.00,,RA,0.00,VWS V14.01,2013-11-01 07:02:00,
2013-11-01 02:07:00,51.0,47.6,29.58,WSW,254,0.0,2.0,88,0.00,,RA,0.00,VWS V14.01,2013-11-01 07:07:00,
2013-11-01 02:12:00,50.8,47.4,29.58,WSW,249,0.0,2.0,88,0.00,,RA,0.00,VWS V14.01,2013-11-01 07:12:00,
2013-11-01 02:17:00,50.7,47.3,29.58,West,269,0.0,2.0,88,0.00,,RA,0.00,VWS V14.01,2013-11-01 07:17:00,
2013-11-01 02:22:00,50.5,47.1,29.57,ENE,59,0.0,2.0,88,0.00,,RA,0.00,VWS V14.01,2013-11-01 07:22:00,
2013-11-01 02:27:00,50.2,46.8,29.57,NE,49,0.0,2.0,88,0.00,,RA,0.00,VWS V14.01,2013-11-01 07:27:00,
2013-11-01 02:30:00,50.1,46.7,29.57,NE,49,0.0,2.0,88,0.00,,RA,0.00,VWS V14.01,2013-11-01 07:30:00,
2013-11-01 02:32:00,50.0,46.9,29.57,NE,49,0.0,0.0,89,0.00,,RA,0.00,VWS V14.01,2013-11-01 07:32:00,
2013-11-01 02:37:00,49.7,46.6,29.57,NE,49,0.0,0.0,89,0.00,,RA,0.00,VWS V14.01,2013-11-01 07:37:00,
2013-11-01 02:42:00,49.5,46.7,29.57,NE,49,0.0,0.0,90,0.00,,RA,0.00,VWS V14.01,2013-11-01 07:42:00,
2013-11-01 02:47:00,49.2,46.4,29.57,NE,49,0.0,0.0,90,0.00,,RA,0.00,VWS V14.01,2013-11-01 07:47:00,
2013-11-01 02:52:00,48.9,46.1,29.57,NE,49,0.0,0.0,90,0.00,,RA,0.00,VWS V14.01,2013-11-01 07:52:00,
2013-11-01 02:58:00,48.6,46.1,29.56,NE,49,0.0,0.0,91,0.00,,RA,0.00,VWS V14.01,2013-11-01 07:58:00,
2013-11-01 03:00:00,48.6,46.1,29.56,NE,49,0.0,0.0,91,0.00,,RA,0.00,VWS V14.01,2013-11-01 08:00:00,
2013-11-01 03:03:00,48.4,45.9,29.56,NE,49,0.0,0.0,91,0.00,,RA,0.00,VWS V14.01,2013-11-01 08:03:00,
2013-11-01 03:08:00,48.2,45.7,29.56,NE,49,0.0,0.0,91,0.00,,RA,0.00,VWS V14.01,2013-11-01 08:08:00,
2013-11-01 03:13:00,48.1,45.6,29.56,NE,48,0.0,0.0,91,0.00,,RA,0.00,VWS V14.01,2013-11-01 08:13:00,
2013-11-01 03:18:00,47.9,45.7,29.57,NE,48,0.0,0.0,92,0.00,,RA,0.00,VWS V14.01,2013-11-01 08:18:00,
2013-11-01 03:23:00,47.8,45.6,29.57,ENE,62,0.0,0.0,92,0.00,,RA,0.00,VWS V14.01,2013-11-01 08:23:00,
2013-11-01 03:28:00,47.7,45.5,29.57,ENE,62,0.0,0.0,92,0.00,,RA,0.00,VWS V14.01,2013-11-01 08:28:00,
2013-11-01 03:30:00,47.7,45.5,29.57,ENE,62,0.0,0.0,92,0.00,,,0.00,VWS V14.01,2013-11-01 08:30:00,
2013-11-01 03:33:00,47.7,45.5,29.56,ENE,62,0.0,0.0,92,0.00,,RA,0.00,VWS V14.01,2013-11-01 08:33:00,
2013-11-01 03:38:00,47.6,45.4,29.56,SSW,207,0.0,1.0,92,0.00,,RA,0.00,VWS V14.01,2013-11-01 08:38:00,
2013-11-01 03:43:00,47.7,45.5,29.56,SSW,201,0.0,1.0,92,0.00,,RA,0.00,VWS V14.01,2013-11-01 08:43:00,
2013-11-01 03:48:00,47.7,45.5,29.56,SSW,205,0.0,1.0,92,0.00,,RA,0.00,VWS V14.01,2013-11-01 08:48:00,
2013-11-01 03:53:00,47.8,45.6,29.56,SSW,205,0.0,1.0,92,0.00,,RA,0.00,VWS V14.01,2013-11-01 08:53:00,
2013-11-01 03:58:00,47.8,45.6,29.56,SW,214,0.0,1.0,92,0.00,,RA,0.00,VWS V14.01,2013-11-01 08:58:00,
2013-11-01 04:00:00,47.8,45.6,29.56,SW,214,0.0,1.0,92,0.00,,,0.00,VWS V14.01,2013-11-01 09:00:00,
2013-11-01 04:04:00,47.8,45.6,29.56,SW,214,0.0,0.0,92,0.00,,RA,0.00,VWS V14.01,2013-11-01 09:04:00,
2013-11-01 04:09:00,47.9,45.4,29.56,SW,217,0.0,1.0,91,0.00,,RA,0.00,VWS V14.01,2013-11-01 09:09:00,
2013-11-01 04:14:00,47.8,45.3,29.56,SW,217,0.0,1.0,91,0.00,,RA,0.00,VWS V14.01,2013-11-01 09:14:00,
2013-11-01 04:19:00,47.8,45.3,29.56,SW,217,0.0,1.0,91,0.00,,RA,0.00,VWS V14.01,2013-11-01 09:19:00,
2013-11-01 04:24:00,47.8,45.3,29.56,SW,217,0.0,1.0,91,0.00,,RA,0.00,VWS V14.01,2013-11-01 09:24:00,
2013-11-01 04:29:00,47.8,45.3,29.56,SW,217,0.0,1.0,91,0.00,,RA,0.00,VWS V14.01,2013-11-01 09:29:00,
2013-11-01 04:30:00,47.8,45.3,29.56,SW,217,0.0,1.0,91,0.00,,,0.00,VWS V14.01,2013-11-01 09:30:00,
2013-11-01 04:34:00,47.7,45.2,29.56,SW,217,0.0,0.0,91,0.00,,RA,0.00,VWS V14.01,2013-11-01 09:34:00,
2013-11-01 04:39:00,47.7,45.5,29.56,SW,217,0.0,0.0,92,0.00,,RA,0.00,VWS V14.01,2013-11-01 09:39:00,
2013-11-01 04:44:00,47.7,45.5,29.56,West,259,0.0,1.0,92,0.00,,RA,0.00,VWS V14.01,2013-11-01 09:44:00,
2013-11-01 04:49:00,47.7,45.5,29.56,West,259,0.0,1.0,92,0.00,,RA,0.00,VWS V14.01,2013-11-01 09:49:00,
2013-11-01 04:54:00,47.8,45.6,29.56,South,180,0.0,1.0,92,0.00,,RA,0.00,VWS V14.01,2013-11-01 09:54:00,
2013-11-01 04:59:00,48.0,45.5,29.56,SW,225,0.0,0.0,91,0.00,,RA,0.00,VWS V14.01,2013-11-01 09:59:00,
2013-11-01 05:00:00,48.0,45.5,29.56,SW,225,0.0,2.0,91,0.00,,,0.00,VWS V14.01,2013-11-01 10:00:00,
2013-11-01 05:05:00,48.5,45.7,29.56,WSW,248,0.0,0.0,90,0.00,,RA,0.00,VWS V14.01,2013-11-01 10:05:00,
2013-11-01 05:10:00,48.9,45.8,29.56,West,269,0.0,3.0,89,0.00,,RA,0.00,VWS V14.01,2013-11-01 10:10:00,
2013-11-01 05:15:00,49.2,45.8,29.56,WSW,258,0.0,3.0,88,0.00,,RA,0.00,VWS V14.01,2013-11-01 10:15:00,
2013-11-01 05:20:00,49.6,45.9,29.56,WSW,250,0.0,3.0,87,0.00,,RA,0.00,VWS V14.01,2013-11-01 10:20:00,
2013-11-01 05:25:00,49.8,45.8,29.57,West,261,0.0,3.0,86,0.00,,RA,0.00,VWS V14.01,2013-11-01 10:25:00,
2013-11-01 05:30:00,49.9,45.6,29.57,West,261,0.0,0.0,85,0.00,,RA,0.00,VWS V14.01,2013-11-01 10:30:00,
2013-11-01 05:35:00,50.0,45.7,29.57,West,261,0.0,0.0,85,0.00,,RA,0.00,VWS V14.01,2013-11-01 10:35:00,
2013-11-01 05:40:00,49.9,45.6,29.57,WSW,258,0.0,1.0,85,0.00,,RA,0.00,VWS V14.01,2013-11-01 10:40:00,
2013-11-01 05:45:00,49.9,45.6,29.57,WSW,258,0.0,1.0,85,0.00,,RA,0.00,VWS V14.01,2013-11-01 10:45:00,
2013-11-01 05:50:00,49.7,45.4,29.57,WSW,258,0.0,1.0,85,0.00,,RA,0.00,VWS V14.01,2013-11-01 10:50:00,
2013-11-01 05:55:00,49.6,45.3,29.58,WSW,254,0.0,1.0,85,0.00,,RA,0.00,VWS V14.01,2013-11-01 10:55:00,
2013-11-01 06:00:00,49.5,45.2,29.58,SW,228,0.0,1.0,85,0.00,,RA,0.00,VWS V14.01,2013-11-01 11:00:00,
2013-11-01 06:06:00,49.5,45.5,29.58,SW,223,0.0,1.0,86,0.00,,RA,0.00,VWS V14.01,2013-11-01 11:06:00,
2013-11-01 06:11:00,49.5,45.2,29.58,SSW,197,0.0,2.0,85,0.00,,RA,0.00,VWS V14.01,2013-11-01 11:11:00,
2013-11-01 06:16:00,49.4,45.1,29.58,SW,228,0.0,2.0,85,0.00,,RA,0.00,VWS V14.01,2013-11-01 11:16:00,
2013-11-01 06:21:00,49.5,45.2,29.58,SW,229,0.0,2.0,85,0.00,,RA,0.00,VWS V14.01,2013-11-01 11:21:00,
2013-11-01 06:26:00,49.4,44.8,29.58,South,183,0.0,2.0,84,0.00,,RA,0.00,VWS V14.01,2013-11-01 11:26:00,
2013-11-01 06:30:00,49.4,45.1,29.58,West,272,0.0,2.0,85,0.00,,,0.00,VWS V14.01,2013-11-01 11:30:00,
2013-11-01 06:31:00,49.4,44.8,29.58,SSW,199,0.0,0.0,84,0.00,,RA,0.00,VWS V14.01,2013-11-01 11:31:00,
2013-11-01 06:36:00,49.5,44.9,29.58,SSW,199,0.0,0.0,84,0.00,,RA,0.00,VWS V14.01,2013-11-01 11:36:00,
2013-11-01 06:41:00,49.5,44.9,29.58,SSW,199,0.0,0.0,84,0.00,,RA,0.00,VWS V14.01,2013-11-01 11:41:00,
2013-11-01 06:46:00,49.4,44.5,29.58,SSW,199,0.0,0.0,83,0.00,,RA,0.00,VWS V14.01,2013-11-01 11:46:00,
2013-11-01 06:51:00,49.4,44.8,29.58,SSW,199,0.0,0.0,84,0.00,,RA,0.00,VWS V14.01,2013-11-01 11:51:00,
2013-11-01 06:56:00,49.3,44.7,29.58,SSW,193,0.0,1.0,84,0.00,,RA,0.00,VWS V14.01,2013-11-01 11:56:00,
2013-11-01 07:00:00,49.3,44.4,29.58,SSW,193,0.0,1.0,83,0.00,,,0.00,VWS V14.01,2013-11-01 12:00:00,
2013-11-01 07:01:00,49.5,44.6,29.58,SSW,200,0.0,5.0,83,0.00,,RA,0.00,VWS V14.01,2013-11-01 12:01:00,
2013-11-01 07:06:00,49.7,44.8,29.58,West,261,0.0,5.0,83,0.00,,RA,0.00,VWS V14.01,2013-11-01 12:06:00,
2013-11-01 07:12:00,49.9,44.6,29.59,West,261,0.0,5.0,82,0.00,,RA,0.00,VWS V14.01,2013-11-01 12:12:00,
2013-11-01 07:30:00,49.8,44.5,29.59,SSW,202,0.0,5.0,82,0.00,,,0.00,VWS V14.01,2013-11-01 12:30:00,
2013-11-01 08:00:00,49.0,44.1,29.60,SSE,158,0.0,1.0,83,0.00,,,0.00,VWS V14.01,2013-11-01 13:00:00,
2013-11-01 08:30:00,50.2,44.9,29.62,West,270,0.0,2.0,82,0.00,,,0.00,VWS V14.01,2013-11-01 13:30:00,
2013-11-01 09:00:00,51.4,45.5,29.63,SW,225,0.0,3.0,80,0.00,,,0.00,VWS V14.01,2013-11-01 14:00:00,
2013-11-01 09:30:00,50.2,44.9,29.62,West,270,0.0,2.0,82,0.00,,CLR,0.00,VWS V14.01,2013-11-01 14:30:00,
2013-11-01 09:38:00,54.0,46.6,29.64,NW,304,0.0,0.0,76,0.00,,,0.00,VWS V14.01,2013-11-01 14:38:00,
2013-11-01 09:43:00,54.4,46.3,29.64,WNW,289,0.0,2.0,74,0.00,,,0.00,VWS V14.01,2013-11-01 14:43:00,
2013-11-01 09:48:00,54.8,47.0,29.64,NW,312,0.0,2.0,75,0.00,,,0.00,VWS V14.01,2013-11-01 14:48:00,
2013-11-01 09:54:00,55.1,46.6,29.64,West,266,0.0,2.0,73,0.00,,,0.00,VWS V14.01,2013-11-01 14:54:00,
2013-11-01 09:59:00,55.5,46.6,29.64,WSW,249,0.0,2.0,72,0.00,,,0.00,VWS V14.01,2013-11-01 14:59:00,
2013-11-01 10:00:00,51.4,45.5,29.63,SW,225,0.0,3.0,80,0.00,,CLR,0.00,VWS V14.01,2013-11-01 15:00:00,
2013-11-01 10:04:00,55.8,46.9,29.65,SSW,203,0.0,1.0,72,0.00,,,0.00,VWS V14.01,2013-11-01 15:04:00,
2013-11-01 10:09:00,56.0,46.7,29.65,SSW,203,0.0,1.0,71,0.00,,,0.00,VWS V14.01,2013-11-01 15:09:00,
2013-11-01 10:14:00,56.3,47.8,29.65,South,175,1.0,1.0,73,0.00,,,0.00,VWS V14.01,2013-11-01 15:14:00,
2013-11-01 10:19:00,56.6,47.3,29.65,North,9,0.0,5.0,71,0.00,,,0.00,VWS V14.01,2013-11-01 15:19:00,
2013-11-01 10:24:00,56.9,46.1,29.65,NW,306,0.0,5.0,67,0.00,,,0.00,VWS V14.01,2013-11-01 15:24:00,
2013-11-01 10:29:00,57.4,46.5,29.65,NNE,15,0.0,0.0,67,0.00,,,0.00,VWS V14.01,2013-11-01 15:29:00,
2013-11-01 10:30:00,57.4,46.5,29.65,NNE,15,0.0,8.0,67,0.00,,BKN100,0.00,VWS V15.00,2013-11-01 15:30:00,
2013-11-01 10:34:00,57.8,45.3,29.65,SSW,210,4.0,6.0,63,0.00,,,0.00,VWS V14.01,2013-11-01 15:34:00,
2013-11-01 10:39:00,58.0,45.9,29.65,WNW,288,1.0,6.0,64,0.00,,,0.00,VWS V14.01,2013-11-01 15:39:00,
2013-11-01 10:44:00,58.2,46.1,29.65,WSW,253,0.0,6.0,64,0.00,,,0.00,VWS V14.01,2013-11-01 15:44:00,
2013-11-01 10:49:00,58.4,46.7,29.65,NW,306,0.0,6.0,65,0.00,,,0.00,VWS V14.01,2013-11-01 15:49:00,
2013-11-01 10:55:00,58.7,46.2,29.65,WNW,284,0.0,6.0,63,0.00,,,0.00,VWS V14.01,2013-11-01 15:55:00,
2013-11-01 11:00:00,59.0,45.6,29.65,WNW,300,0.0,3.0,61,0.00,,,0.00,VWS V14.01,2013-11-01 16:00:00,
2013-11-01 11:05:00,59.4,46.0,29.65,WNW,301,3.0,5.0,61,0.00,,,0.00,VWS V14.01,2013-11-01 16:05:00,
2013-11-01 11:10:00,59.9,46.0,29.65,WNW,286,0.0,8.0,60,0.00,,,0.00,VWS V14.01,2013-11-01 16:10:00,
2013-11-01 11:15:00,60.2,45.8,29.66,NNW,334,0.0,10.0,59,0.00,,,0.00,VWS V14.01,2013-11-01 16:15:00,
2013-11-01 11:20:00,60.7,46.3,29.66,NNE,14,5.0,10.0,59,0.00,,,0.00,VWS V14.01,2013-11-01 16:20:00,
2013-11-01 11:25:00,61.1,46.7,29.66,NW,323,3.0,10.0,59,0.00,,,0.00,VWS V14.01,2013-11-01 16:25:00,
2013-11-01 11:30:00,61.4,46.5,29.65,NW,317,2.0,2.0,58,0.00,,,0.00,VWS V14.01,2013-11-01 16:30:00,
2013-11-01 11:35:00,61.5,46.6,29.66,WNW,299,0.0,9.0,58,0.00,,,0.00,VWS V14.01,2013-11-01 16:35:00,
2013-11-01 11:40:00,61.6,45.8,29.66,NW,314,0.0,9.0,56,0.00,,,0.00,VWS V14.01,2013-11-01 16:40:00,
2013-11-01 11:45:00,61.9,46.5,29.66,NW,319,0.0,9.0,57,0.00,,,0.00,VWS V14.01,2013-11-01 16:45:00,
2013-11-01 11:50:00,62.1,45.3,29.66,NNW,338,4.0,9.0,54,0.00,,,0.00,VWS V14.01,2013-11-01 16:50:00,
2013-11-01 11:56:00,62.3,45.0,29.66,WNW,297,10.0,10.0,53,0.00,,,0.00,VWS V14.01,2013-11-01 16:56:00,
2013-11-01 12:00:00,58.9,45.5,29.65,WNW,300,2.0,7.0,61,0.00,,CLR,0.00,VWS V14.01,2013-11-01 17:00:00,
2013-11-01 12:01:00,62.5,46.6,29.65,NW,326,0.0,2.0,56,0.00,,,0.00,VWS V14.01,2013-11-01 17:01:00,
2013-11-01 12:06:00,62.8,45.4,29.65,ENE,63,0.0,4.0,53,0.00,,,0.00,VWS V14.01,2013-11-01 17:06:00,
2013-11-01 12:11:00,63.2,46.3,29.65,NNW,332,0.0,4.0,54,0.00,,,0.00,VWS V14.01,2013-11-01 17:11:00,
2013-11-01 12:16:00,63.5,46.1,29.65,NW,309,3.0,7.0,53,0.00,,,0.00,VWS V14.01,2013-11-01 17:16:00,
2013-11-01 12:21:00,63.9,46.0,29.65,NW,317,1.0,7.0,52,0.00,,,0.00,VWS V14.01,2013-11-01 17:21:00,
2013-11-01 12:26:00,64.1,45.1,29.65,West,276,0.0,7.0,50,0.00,,,0.00,VWS V14.01,2013-11-01 17:26:00,
2013-11-01 12:30:00,61.3,46.4,29.66,WNW,300,0.0,10.0,58,0.00,,CLR,0.00,VWS V14.01,2013-11-01 17:30:00,
2013-11-01 12:31:00,64.5,47.0,29.65,West,272,0.0,3.0,53,0.00,,,0.00,VWS V14.01,2013-11-01 17:31:00,
2013-11-01 12:36:00,64.8,46.3,29.65,West,281,3.0,5.0,51,0.00,,,0.00,VWS V14.01,2013-11-01 17:36:00,
2013-11-01 12:41:00,65.0,45.9,29.65,NNE,15,0.0,8.0,50,0.00,,,0.00,VWS V14.01,2013-11-01 17:41:00,
2013-11-01 12:46:00,65.3,47.2,29.65,WNW,302,0.0,8.0,52,0.00,,,0.00,VWS V14.01,2013-11-01 17:46:00,
2013-11-01 12:51:00,65.5,46.9,29.65,SW,233,0.0,8.0,51,0.00,,,0.00,VWS V14.01,2013-11-01 17:51:00,
2013-11-01 12:57:00,65.6,46.5,29.65,ENE,75,0.0,8.0,50,0.00,,,0.00,VWS V14.01,2013-11-01 17:57:00,
2013-11-01 13:00:00,62.4,46.0,29.65,WSW,256,0.0,10.0,55,0.00,,CLR,0.00,VWS V14.01,2013-11-01 18:00:00,
2013-11-01 13:02:00,66.0,45.8,29.65,WNW,291,3.0,7.0,48,0.00,,,0.00,VWS V14.01,2013-11-01 18:02:00,
2013-11-01 13:07:00,66.4,46.1,29.64,SW,227,1.0,7.0,48,0.00,,,0.00,VWS V14.01,2013-11-01 18:07:00,
2013-11-01 13:12:00,66.3,44.9,29.64,NW,313,1.0,7.0,46,0.00,,,0.00,VWS V14.01,2013-11-01 18:12:00,
2013-11-01 13:17:00,66.5,45.1,29.64,NW,311,3.0,7.0,46,0.00,,,0.00,VWS V14.01,2013-11-01 18:17:00,
2013-11-01 13:22:00,66.6,45.2,29.63,NNE,22,0.0,8.0,46,0.00,,,0.00,VWS V14.01,2013-11-01 18:22:00,
2013-11-01 13:27:00,66.7,45.3,29.63,West,265,6.0,8.0,46,0.00,,,0.00,VWS V14.01,2013-11-01 18:27:00,
2013-11-01 13:30:00,64.3,46.8,29.65,North,350,0.0,7.0,53,0.00,,CLR,0.00,VWS V14.01,2013-11-01 18:30:00,
2013-11-01 13:32:00,66.8,44.8,29.63,NNW,334,1.0,6.0,45,0.00,,,0.00,VWS V14.01,2013-11-01 18:32:00,
2013-11-01 13:37:00,66.9,44.9,29.63,NW,314,8.0,8.0,45,0.00,,,0.00,VWS V14.01,2013-11-01 18:37:00,
2013-11-01 13:42:00,67.0,45.0,29.63,NE,49,0.0,8.0,45,0.00,,,0.00,VWS V14.01,2013-11-01 18:42:00,
2013-11-01 13:47:00,66.9,44.9,29.63,NW,304,2.0,8.0,45,0.00,,,0.00,VWS V14.01,2013-11-01 18:47:00,
2013-11-01 13:52:00,66.8,44.2,29.63,WSW,257,1.0,8.0,44,0.00,,,0.00,VWS V14.01,2013-11-01 18:52:00,
2013-11-01 13:58:00,66.9,44.3,29.62,NNW,331,0.0,8.0,44,0.00,,,0.00,VWS V14.01,2013-11-01 18:58:00,
2013-11-01 14:00:00,65.8,46.7,29.65,North,10,0.0,8.0,50,0.00,,CLR,0.00,VWS V14.01,2013-11-01 19:00:00,
2013-11-01 14:03:00,67.0,44.4,29.62,WNW,295,0.0,3.0,44,0.00,,,0.00,VWS V14.01,2013-11-01 19:03:00,
2013-11-01 14:08:00,67.1,45.7,29.62,ESE,102,0.0,8.0,46,0.00,,,0.00,VWS V14.01,2013-11-01 19:08:00,
2013-11-01 14:13:00,67.3,43.5,29.62,West,274,0.0,8.0,42,0.00,,,0.00,VWS V14.01,2013-11-01 19:13:00,
2013-11-01 14:18:00,67.4,44.8,29.62,West,275,3.0,8.0,44,0.00,,,0.00,VWS V14.01,2013-11-01 19:18:00,
2013-11-01 14:23:00,67.2,43.4,29.62,WSW,242,0.0,8.0,42,0.00,,,0.00,VWS V14.01,2013-11-01 19:23:00,
2013-11-01 14:28:00,67.2,45.2,29.62,WSW,240,0.0,8.0,45,0.00,,,0.00,VWS V14.01,2013-11-01 19:28:00,
2013-11-01 14:30:00,66.7,44.7,29.63,WNW,285,0.0,8.0,45,0.00,,CLR,0.00,VWS V14.01,2013-11-01 19:30:00,
2013-11-01 14:33:00,67.3,45.2,29.62,West,267,1.0,6.0,45,0.00,,,0.00,VWS V14.01,2013-11-01 19:33:00,
2013-11-01 14:38:00,67.3,44.1,29.62,WNW,296,1.0,7.0,43,0.00,,,0.00,VWS V14.01,2013-11-01 19:38:00,
2013-11-01 14:43:00,67.2,44.6,29.62,West,281,2.0,7.0,44,0.00,,,0.00,VWS V14.01,2013-11-01 19:43:00,
2013-11-01 14:48:00,67.0,44.4,29.62,WNW,284,0.0,7.0,44,0.00,,,0.00,VWS V14.01,2013-11-01 19:48:00,
2013-11-01 14:53:00,67.0,44.4,29.62,NW,312,0.0,7.0,44,0.00,,,0.00,VWS V14.01,2013-11-01 19:53:00,
2013-11-01 14:58:00,66.9,43.1,29.62,SW,227,0.0,7.0,42,0.00,,,0.00,VWS V14.01,2013-11-01 19:58:00,
2013-11-01 15:00:00,66.9,44.3,29.62,SSW,209,2.0,8.0,44,0.00,,CLR,0.00,VWS V14.01,2013-11-01 20:00:00,
2013-11-01 15:03:00,67.0,44.4,29.62,WNW,295,6.0,6.0,44,0.00,,,0.00,VWS V14.01,2013-11-01 20:03:00,
2013-11-01 15:09:00,67.0,45.6,29.61,WSW,256,1.0,7.0,46,0.00,,,0.00,VWS V14.01,2013-11-01 20:09:00,
2013-11-01 15:14:00,66.8,44.8,29.62,West,263,0.0,7.0,45,0.00,,,0.00,VWS V14.01,2013-11-01 20:14:00,
2013-11-01 15:19:00,66.8,44.2,29.62,SW,219,0.0,8.0,44,0.00,,,0.00,VWS V14.01,2013-11-01 20:19:00,
2013-11-01 15:24:00,66.8,44.2,29.61,WSW,244,0.0,8.0,44,0.00,,,0.00,VWS V14.01,2013-11-01 20:24:00,
2013-11-01 15:29:00,66.8,44.2,29.61,WNW,290,0.0,8.0,44,0.00,,,0.00,VWS V14.01,2013-11-01 20:29:00,
2013-11-01 15:30:00,67.2,44.0,29.62,North,5,3.0,8.0,43,0.00,,CLR,0.00,VWS V14.01,2013-11-01 20:30:00,
2013-11-01 15:34:00,66.8,44.8,29.61,WNW,288,0.0,4.0,45,0.00,,,0.00,VWS V14.01,2013-11-01 20:34:00,
2013-11-01 15:39:00,66.8,44.2,29.61,SW,234,2.0,6.0,44,0.00,,,0.00,VWS V14.01,2013-11-01 20:39:00,
2013-11-01 15:44:00,66.8,44.8,29.62,NE,34,0.0,6.0,45,0.00,,,0.00,VWS V14.01,2013-11-01 20:44:00,
2013-11-01 15:49:00,66.7,43.5,29.62,NW,325,2.0,6.0,43,0.00,,,0.00,VWS V14.01,2013-11-01 20:49:00,
2013-11-01 15:54:00,66.6,44.0,29.62,NNW,346,4.0,7.0,44,0.00,,,0.00,VWS V14.01,2013-11-01 20:54:00,
2013-11-01 15:59:00,66.6,42.8,29.62,WNW,289,2.0,2.0,42,0.00,,,0.00,VWS V14.01,2013-11-01 20:59:00,
2013-11-01 16:00:00,66.9,44.3,29.62,SW,236,0.0,7.0,44,0.00,,CLR,0.00,VWS V14.01,2013-11-01 21:00:00,
2013-11-01 16:04:00,66.6,44.0,29.62,WNW,302,1.0,4.0,44,0.00,,,0.00,VWS V14.01,2013-11-01 21:04:00,
2013-11-01 16:09:00,66.5,43.3,29.62,West,276,0.0,5.0,43,0.00,,,0.00,VWS V14.01,2013-11-01 21:09:00,
2013-11-01 16:14:00,66.3,44.3,29.61,WNW,290,0.0,5.0,45,0.00,,,0.00,VWS V14.01,2013-11-01 21:14:00,
2013-11-01 16:20:00,66.2,43.7,29.62,NW,311,2.0,5.0,44,0.00,,,0.00,VWS V14.01,2013-11-01 21:20:00,
2013-11-01 16:25:00,66.1,44.2,29.62,NW,321,2.0,5.0,45,0.00,,,0.00,VWS V14.01,2013-11-01 21:25:00,
2013-11-01 16:30:00,66.2,44.2,29.62,WNW,302,2.0,2.0,45,0.00,,,0.00,VWS V14.01,2013-11-01 21:30:00,
2013-11-01 16:35:00,66.2,43.1,29.62,NW,315,1.0,3.0,43,0.00,,,0.00,VWS V14.01,2013-11-01 21:35:00,
2013-11-01 16:40:00,66.2,44.2,29.62,NW,304,2.0,6.0,45,0.00,,,0.00,VWS V14.01,2013-11-01 21:40:00,
2013-11-01 16:45:00,66.0,42.9,29.62,NW,323,1.0,9.0,43,0.00,,,0.00,VWS V14.01,2013-11-01 21:45:00,
2013-11-01 16:50:00,65.8,42.1,29.63,NW,313,0.0,9.0,42,0.00,,,0.00,VWS V14.01,2013-11-01 21:50:00,
2013-11-01 16:55:00,65.6,42.5,29.63,WNW,289,2.0,9.0,43,0.00,,,0.00,VWS V14.01,2013-11-01 21:55:00,
2013-11-01 17:00:00,65.4,42.3,29.63,NNW,329,2.0,4.0,43,0.00,,,0.00,VWS V14.01,2013-11-01 22:00:00,
2013-11-01 17:05:00,65.2,42.8,29.63,NNW,331,2.0,7.0,44,0.00,,,0.00,VWS V14.01,2013-11-01 22:05:00,
2013-11-01 17:10:00,65.0,43.2,29.63,WNW,298,7.0,7.0,45,0.00,,,0.00,VWS V14.01,2013-11-01 22:10:00,
2013-11-01 17:16:00,64.9,42.5,29.63,NW,320,1.0,9.0,44,0.00,,,0.00,VWS V14.01,2013-11-01 22:16:00,
2013-11-01 17:21:00,64.6,42.2,29.63,NNW,327,5.0,13.0,44,0.00,,,0.00,VWS V14.01,2013-11-01 22:21:00,
2013-11-01 17:26:00,64.5,42.1,29.64,WNW,292,3.0,13.0,44,0.00,,,0.00,VWS V14.01,2013-11-01 22:26:00,
2013-11-01 17:30:00,66.1,44.2,29.62,SW,236,1.0,5.0,45,0.00,,CLR,0.00,VWS V14.01,2013-11-01 22:30:00,
2013-11-01 17:31:00,64.3,41.9,29.64,NW,304,2.0,8.0,44,0.00,,,0.00,VWS V14.01,2013-11-01 22:31:00,
2013-11-01 17:36:00,64.1,42.9,29.64,WNW,299,5.0,8.0,46,0.00,,,0.00,VWS V14.01,2013-11-01 22:36:00,
2013-11-01 17:41:00,64.0,42.3,29.64,NNW,329,3.0,8.0,45,0.00,,,0.00,VWS V14.01,2013-11-01 22:41:00,
2013-11-01 17:46:00,63.7,42.0,29.64,NNW,332,6.0,10.0,45,0.00,,,0.00,VWS V14.01,2013-11-01 22:46:00,
2013-11-01 17:51:00,63.5,42.4,29.64,NW,310,2.0,10.0,46,0.00,,,0.00,VWS V14.01,2013-11-01 22:51:00,
2013-11-01 17:56:00,63.2,42.1,29.65,NW,317,6.0,10.0,46,0.00,,,0.00,VWS V14.01,2013-11-01 22:56:00,
2013-11-01 18:00:00,65.4,41.7,29.63,NW,304,4.0,9.0,42,0.00,,CLR,0.00,VWS V14.01,2013-11-01 23:00:00,
2013-11-01 18:01:00,62.9,42.4,29.65,NNW,347,3.0,7.0,47,0.00,,,0.00,VWS V14.01,2013-11-01 23:01:00,
2013-11-01 18:06:00,62.6,42.1,29.65,North,355,1.0,10.0,47,0.00,,,0.00,VWS V14.01,2013-11-01 23:06:00,
2013-11-01 18:11:00,62.3,42.4,29.65,NW,311,0.0,10.0,48,0.00,,,0.00,VWS V14.01,2013-11-01 23:11:00,
2013-11-01 18:17:00,62.0,43.2,29.65,North,11,1.0,10.0,50,0.00,,,0.00,VWS V14.01,2013-11-01 23:17:00,
2013-11-01 18:22:00,61.6,43.3,29.66,NW,319,3.0,10.0,51,0.00,,,0.00,VWS V14.01,2013-11-01 23:22:00,
2013-11-01 18:27:00,61.3,43.0,29.66,NNW,339,0.0,10.0,51,0.00,,,0.00,VWS V14.01,2013-11-01 23:27:00,
2013-11-01 18:30:00,64.4,42.0,29.64,North,360,5.0,13.0,44,0.00,,CLR,0.00,VWS V14.01,2013-11-01 23:30:00,
2013-11-01 18:32:00,60.9,43.7,29.66,NW,308,0.0,3.0,53,0.00,,OVC100,0.00,VWS V14.01,2013-11-01 23:32:00,
2013-11-01 18:37:00,60.5,43.3,29.66,NW,316,0.0,3.0,53,0.00,,OVC100,0.00,VWS V14.01,2013-11-01 23:37:00,
2013-11-01 18:42:00,60.0,43.8,29.66,NW,317,0.0,3.0,55,0.00,,OVC100,0.00,VWS V14.01,2013-11-01 23:42:00,
2013-11-01 18:47:00,59.6,43.4,29.67,NW,311,0.0,3.0,55,0.00,,OVC100,0.00,VWS V14.01,2013-11-01 23:47:00,
2013-11-01 18:52:00,59.2,44.0,29.67,NW,313,0.0,3.0,57,0.00,,OVC100,0.00,VWS V14.01,2013-11-01 23:52:00,
2013-11-01 18:57:00,58.8,43.6,29.67,WNW,302,0.0,3.0,57,0.00,,OVC100,0.00,VWS V14.01,2013-11-01 23:57:00,
2013-11-01 19:00:00,63.1,42.0,29.65,WNW,298,3.0,10.0,46,0.00,,CLR,0.00,VWS V14.01,2013-11-02 00:00:00,
2013-11-01 19:02:00,58.4,43.2,29.67,NW,321,0.0,2.0,57,0.00,,OVC100,0.00,VWS V14.01,2013-11-02 00:02:00,
2013-11-01 19:07:00,58.1,43.9,29.67,NW,310,2.0,3.0,59,0.00,,OVC100,0.00,VWS V14.01,2013-11-02 00:07:00,
2013-11-01 19:12:00,57.8,44.0,29.68,NW,311,0.0,3.0,60,0.00,,OVC100,0.00,VWS V14.01,2013-11-02 00:12:00,
2013-11-01 19:17:00,57.4,43.6,29.68,NW,322,0.0,3.0,60,0.00,,OVC100,0.00,VWS V14.01,2013-11-02 00:17:00,
2013-11-01 19:23:00,57.1,43.8,29.69,NW,315,0.0,3.0,61,0.00,,OVC100,0.00,VWS V14.01,2013-11-02 00:23:00,
2013-11-01 19:28:00,56.8,43.5,29.69,NW,309,1.0,5.0,61,0.00,,OVC100,0.00,VWS V14.01,2013-11-02 00:28:00,
2013-11-01 19:30:00,61.1,43.4,29.66,NW,311,0.0,10.0,52,0.00,,CLR,0.00,VWS V14.01,2013-11-02 00:30:00,
2013-11-01 19:33:00,56.6,43.8,29.69,NW,320,0.0,3.0,62,0.00,,OVC100,0.00,VWS V14.01,2013-11-02 00:33:00,
2013-11-01 19:38:00,56.5,44.1,29.70,NW,304,0.0,3.0,63,0.00,,OVC100,0.00,VWS V14.01,2013-11-02 00:38:00,
2013-11-01 19:43:00,56.4,44.0,29.69,NW,304,2.0,3.0,63,0.00,,OVC100,0.00,VWS V14.01,2013-11-02 00:43:00,
2013-11-01 19:48:00,56.2,44.2,29.69,NW,325,1.0,5.0,64,0.00,,OVC100,0.00,VWS V14.01,2013-11-02 00:48:00,
2013-11-01 19:53:00,55.9,43.5,29.70,NNW,335,1.0,5.0,63,0.00,,OVC100,0.00,VWS V14.01,2013-11-02 00:53:00,
2013-11-01 19:58:00,55.8,43.4,29.70,NNW,331,0.0,5.0,63,0.00,,OVC100,0.00,VWS V14.01,2013-11-02 00:58:00,
2013-11-01 20:00:00,58.7,44.0,29.67,NW,325,1.0,3.0,58,0.00,,CLR,0.00,VWS V14.01,2013-11-02 01:00:00,
2013-11-01 20:03:00,55.7,43.3,29.70,NW,310,3.0,4.0,63,0.00,,OVC100,0.00,VWS V14.01,2013-11-02 01:03:00,
2013-11-01 20:08:00,55.7,43.3,29.70,WNW,299,4.0,4.0,63,0.00,,OVC100,0.00,VWS V14.01,2013-11-02 01:08:00,
2013-11-01 20:13:00,55.6,43.2,29.70,WNW,300,3.0,4.0,63,0.00,,OVC100,0.00,VWS V14.01,2013-11-02 01:13:00,
2013-11-01 20:18:00,55.6,43.2,29.70,NW,304,1.0,4.0,63,0.00,,OVC100,0.00,VWS V14.01,2013-11-02 01:18:00,
2013-11-01 20:24:00,55.6,43.2,29.70,NNW,339,0.0,4.0,63,0.00,,OVC100,0.00,VWS V14.01,2013-11-02 01:24:00,
2013-11-01 20:29:00,55.5,43.1,29.70,NW,320,0.0,5.0,63,0.00,,OVC100,0.00,VWS V14.01,2013-11-02 01:29:00,
2013-11-01 20:30:00,56.7,43.8,29.69,NW,319,0.0,5.0,62,0.00,,CLR,0.00,VWS V14.01,2013-11-02 01:30:00,
2013-11-01 20:34:00,55.4,43.0,29.71,NNW,329,1.0,4.0,63,0.00,,OVC100,0.00,VWS V14.01,2013-11-02 01:34:00,
2013-11-01 20:39:00,55.2,43.2,29.71,NW,317,1.0,4.0,64,0.00,,OVC100,0.00,VWS V14.01,2013-11-02 01:39:00,
2013-11-01 20:44:00,55.1,43.2,29.71,NW,319,0.0,4.0,64,0.00,,CLR,0.00,VWS V14.01,2013-11-02 01:44:00,
2013-11-01 20:49:00,54.9,43.0,29.71,NW,320,0.0,4.0,64,0.00,,CLR,0.00,VWS V14.01,2013-11-02 01:49:00,
2013-11-01 20:54:00,54.7,43.2,29.72,NW,321,3.0,7.0,65,0.00,,CLR,0.00,VWS V14.01,2013-11-02 01:54:00,
2013-11-01 20:59:00,54.8,42.9,29.72,NNW,333,8.0,8.0,64,0.00,,CLR,0.00,VWS V14.01,2013-11-02 01:59:00,
2013-11-01 21:00:00,55.8,43.4,29.70,NNW,343,1.0,5.0,63,0.00,,CLR,0.00,VWS V14.01,2013-11-02 02:00:00,
2013-11-01 21:04:00,55.3,42.5,29.73,NW,306,3.0,12.0,62,0.00,,CLR,0.00,VWS V14.01,2013-11-02 02:04:00,
2013-11-01 21:09:00,55.4,42.6,29.73,NNW,345,8.0,13.0,62,0.00,,CLR,0.00,VWS V14.01,2013-11-02 02:09:00,
2013-11-01 21:14:00,55.5,42.7,29.74,WNW,295,4.0,13.0,62,0.00,,CLR,0.00,VWS V14.01,2013-11-02 02:14:00,
2013-11-01 21:19:00,55.5,43.5,29.75,WNW,284,1.0,13.0,64,0.00,,CLR,0.00,VWS V14.01,2013-11-02 02:19:00,
2013-11-01 21:25:00,55.4,45.4,29.74,North,5,0.0,13.0,69,0.01,,CLR,0.01,VWS V14.01,2013-11-02 02:25:00,
2013-11-01 21:30:00,54.9,46.4,29.74,NNW,341,1.0,2.0,73,0.01,,CLR,0.01,VWS V14.01,2013-11-02 02:30:00,
2013-11-01 21:35:00,54.3,46.9,29.74,NNW,348,0.0,3.0,76,0.01,,CLR,0.01,VWS V14.01,2013-11-02 02:35:00,
2013-11-01 21:40:00,53.5,46.8,29.74,NW,309,0.0,3.0,78,0.01,,CLR,0.01,VWS V14.01,2013-11-02 02:40:00,
2013-11-01 21:45:00,52.7,46.4,29.75,NW,321,0.0,3.0,79,0.01,,SCT110,0.01,VWS V14.01,2013-11-02 02:45:00,
2013-11-01 21:50:00,52.1,46.5,29.74,NW,322,0.0,3.0,81,0.01,,SCT110,0.01,VWS V14.01,2013-11-02 02:50:00,
2013-11-01 21:55:00,51.5,46.2,29.75,NNW,339,5.0,5.0,82,0.01,,SCT110,0.01,VWS V14.01,2013-11-02 02:55:00,
2013-11-01 22:00:00,51.1,45.8,29.75,NW,311,0.0,2.0,82,0.01,,SCT110,0.01,VWS V14.01,2013-11-02 03:00:00,
2013-11-01 22:05:00,50.8,45.8,29.75,WNW,285,1.0,2.0,83,0.01,,SCT110,0.01,VWS V14.01,2013-11-02 03:05:00,
2013-11-01 22:11:00,50.5,45.5,29.75,NW,306,1.0,3.0,83,0.01,,SCT110,0.01,VWS V14.01,2013-11-02 03:11:00,
2013-11-01 22:16:00,50.3,45.3,29.75,NW,306,0.0,3.0,83,0.01,,SCT110,0.01,VWS V14.01,2013-11-02 03:16:00,
2013-11-01 22:21:00,50.0,45.4,29.76,NW,325,0.0,3.0,84,0.01,,SCT110,0.01,VWS V14.01,2013-11-02 03:21:00,
2013-11-01 22:26:00,49.8,45.2,29.76,NNW,328,0.0,6.0,84,0.01,,SCT110,0.01,VWS V14.01,2013-11-02 03:26:00,
2013-11-01 22:30:00,55.0,46.5,29.74,WNW,303,2.0,13.0,73,0.01,,CLR,0.01,VWS V14.01,2013-11-02 03:30:00,
2013-11-01 22:31:00,49.6,45.3,29.76,NNW,328,0.0,0.0,85,0.00,,SCT110,0.01,VWS V14.01,2013-11-02 03:31:00,
2013-11-01 22:36:00,49.4,45.1,29.76,NW,316,1.0,2.0,85,0.00,,SCT110,0.01,VWS V14.01,2013-11-02 03:36:00,
2013-11-01 22:41:00,49.2,45.2,29.77,WNW,283,0.0,2.0,86,0.00,,FEW060,0.01,VWS V14.01,2013-11-02 03:41:00,
2013-11-01 22:46:00,49.2,45.2,29.77,NW,307,1.0,3.0,86,0.00,,FEW060,0.01,VWS V14.01,2013-11-02 03:46:00,
2013-11-01 22:51:00,49.2,44.9,29.77,NW,322,6.0,7.0,85,0.00,,FEW060,0.01,VWS V14.01,2013-11-02 03:51:00,
2013-11-01 22:56:00,49.4,44.8,29.77,NW,326,5.0,7.0,84,0.00,,FEW060,0.01,VWS V14.01,2013-11-02 03:56:00,
2013-11-01 23:00:00,51.2,45.9,29.75,WNW,284,0.0,6.0,82,0.01,,CLR,0.01,VWS V14.01,2013-11-02 04:00:00,
2013-11-01 23:01:00,49.5,44.9,29.77,WNW,299,0.0,3.0,84,0.00,,FEW060,0.01,VWS V14.01,2013-11-02 04:01:00,
2013-11-01 23:02:00,49.6,45.0,29.77,NW,319,0.0,3.0,84,0.00,,FEW060,0.01,VWS V14.01,2013-11-02 04:02:00,
2013-11-01 23:06:00,49.6,45.0,29.77,NW,315,0.0,3.0,84,0.00,,FEW060,0.01,VWS V14.01,2013-11-02 04:06:00,
2013-11-01 23:11:00,49.6,44.7,29.77,WNW,285,0.0,3.0,83,0.00,,FEW060,0.01,VWS V14.01,2013-11-02 04:11:00,
2013-11-01 23:16:00,49.5,44.9,29.77,WNW,300,0.0,3.0,84,0.00,,FEW060,0.01,VWS V14.01,2013-11-02 04:16:00,
2013-11-01 23:21:00,49.4,44.8,29.78,West,280,0.0,3.0,84,0.00,,FEW060,0.01,VWS V14.01,2013-11-02 04:21:00,
2013-11-01 23:26:00,49.3,44.7,29.78,NW,315,2.0,3.0,84,0.00,,FEW060,0.01,VWS V14.01,2013-11-02 04:26:00,
2013-11-01 23:30:00,49.6,45.3,29.76,NNW,328,0.0,6.0,85,0.01,,CLR,0.01,VWS V14.01,2013-11-02 04:30:00,
2013-11-01 23:31:00,49.3,44.7,29.78,WNW,300,0.0,0.0,84,0.00,,FEW060,0.01,VWS V14.01,2013-11-02 04:31:00,
2013-11-01 23:36:00,49.2,44.6,29.78,NW,314,0.0,1.0,84,0.00,,FEW060,0.01,VWS V14.01,2013-11-02 04:36:00,
2013-11-01 23:41:00,49.2,44.6,29.78,NW,313,0.0,2.0,84,0.00,,CLR,0.01,VWS V14.01,2013-11-02 04:41:00,
2013-11-01 23:47:00,49.1,44.5,29.78,NW,321,0.0,2.0,84,0.00,,CLR,0.01,VWS V14.01,2013-11-02 04:47:00,
2013-11-01 23:52:00,49.0,44.7,29.78,NW,315,0.0,2.0,85,0.00,,CLR,0.01,VWS V14.01,2013-11-02 04:52:00,
2013-11-01 23:57:00,48.9,44.6,29.78,NW,315,0.0,2.0,85,0.00,,CLR,0.01,VWS V14.01,2013-11-02 04:57:00,